Holdrege, NE

12:29 AM CDT on July 23, 2017 (GMT -0500)
Brewster

Weather History for KHDE - March, 2014

Change the Weather History Date:

Monday, March 24, 2014

  Actual Average Record
Temperature  
Mean Temperature 36 °F -  
Max Temperature 44 °F 53 °F 86 °F (1967)
Min Temperature 27 °F 28 °F 3 °F (1965)
Degree Days  
Heating Degree Days 30    
Moisture  
Dew Point 20 °F    
Average Humidity 58    
Maximum Humidity 80    
Minimum Humidity 34    
Precipitation  
Precipitation 0.00 in - - ()
Sea Level Pressure  
Sea Level Pressure 30.21 in    
Wind  
Wind Speed 10 mph (North)    
Max Wind Speed 22 mph    
Max Gust Speed 29 mph    
Visibility 10 miles    
Events Snow    
Averages and records for this station are not official NWS values.
T = Trace of Precipitation, MM = Missing Value Source: NWS Daily Summary

Daily Weather History Graph

Daily Weather History Graph

Search for Another Location

Airport or City:

Trip Planner

Search our weather history database for the weather conditions in past years. The results will help you decide how hot, cold, wet, or windy it might be!

Date:

Astronomy

Mar. 24, 2014 Rise Set
Actual Time 7:34 AM CDT 7:53 PM CDT
Civil Twilight 7:06 AM CDT 8:20 PM CDT
Nautical Twilight 6:34 AM CDT 8:53 PM CDT
Astronomical Twilight 6:02 AM CDT 9:25 PM CDT
Moon 3:06 AM CDT (3/24) 1:19 PM CDT (3/24)
Length of Visible Light 13h 14m
Length of Day
12h 19m
Last Quarter, 43% of the Moon is Illuminated
Mar 24
Last Quarter
Mar 30
New
Apr 7
First Quarter
Apr 15
Full
Apr 22
Last Quarter

Hourly Weather History & Observations

Time (CDT) Temp. Windchill Dew Point Humidity Pressure Visibility Wind Dir Wind Speed Gust Speed Precip Events Conditions
12:15 AM 32.0 °F 23.0 °F 20.3 °F 62% 30.13 in 10.0 mi South 11.5 mph - N/A   Overcast
12:35 AM 32.5 °F 24.8 °F 21.0 °F 63% 30.14 in 10.0 mi SSE 9.2 mph - N/A   Overcast
12:55 AM 33.1 °F 26.1 °F 21.6 °F 63% 30.14 in 10.0 mi SSE 8.1 mph - N/A   Overcast
1:15 AM 33.8 °F 23.2 °F 23.7 °F 67% 30.13 in 7.0 mi South 17.3 mph 21.9 mph N/A Snow Light Snow
1:35 AM 34.2 °F 24.4 °F 22.3 °F 62% 30.14 in 10.0 mi South 15.0 mph 20.7 mph N/A Snow Light Snow
1:55 AM 33.8 °F 28.6 °F 22.8 °F 64% 30.16 in 10.0 mi SSE 5.8 mph - N/A Snow Light Snow
2:15 AM 33.8 °F - 22.5 °F 63% 30.17 in 10.0 mi Calm Calm - N/A   Overcast
2:35 AM 33.3 °F 30.2 °F 23.2 °F 67% 30.19 in 7.0 mi WNW 3.5 mph - N/A   Overcast
2:55 AM 32.2 °F - 23.9 °F 72% 30.17 in 10.0 mi Calm Calm - N/A   Overcast
3:15 AM 32.2 °F 27.7 °F 25.3 °F 76% 30.16 in 10.0 mi SE 4.6 mph - N/A   Overcast
3:35 AM 31.8 °F 26.2 °F 25.2 °F 76% 30.16 in 10.0 mi NNE 5.8 mph - N/A   Overcast
3:55 AM 31.1 °F 25.4 °F 25.0 °F 78% 30.15 in 10.0 mi ESE 5.8 mph - N/A   Overcast
4:15 AM 32.0 °F 24.8 °F 25.5 °F 77% 30.14 in 10.0 mi SE 8.1 mph - N/A   Overcast
4:35 AM 31.8 °F 25.4 °F 26.4 °F 80% 30.13 in 10.0 mi SSE 6.9 mph - N/A   Overcast
4:55 AM 32.0 °F 22.5 °F 25.3 °F 76% 30.11 in 10.0 mi South 12.7 mph - N/A   Overcast
5:15 AM 32.2 °F 25.0 °F 23.7 °F 71% 30.11 in 10.0 mi SSE 8.1 mph - N/A   Mostly Cloudy
5:35 AM 32.2 °F 25.8 °F 23.5 °F 70% 30.11 in 10.0 mi South 6.9 mph - N/A   Mostly Cloudy
5:55 AM 32.0 °F 23.0 °F 23.7 °F 71% 30.16 in 10.0 mi NNW 11.5 mph 16.1 mph N/A   Overcast
6:15 AM 30.9 °F 23.5 °F 22.1 °F 70% 30.16 in 10.0 mi North 8.1 mph - N/A   Overcast
6:35 AM 30.0 °F 24.1 °F 22.6 °F 74% 30.17 in 10.0 mi North 5.8 mph - N/A   Overcast
6:55 AM 29.7 °F 24.7 °F 22.8 °F 76% 30.17 in 10.0 mi NNW 4.6 mph - N/A   Overcast
7:15 AM 29.8 °F 23.9 °F 22.5 °F 74% 30.18 in 10.0 mi North 5.8 mph - N/A   Overcast
7:35 AM 29.3 °F 22.3 °F 22.3 °F 75% 30.20 in 10.0 mi North 6.9 mph - N/A   Overcast
7:55 AM 29.3 °F 23.2 °F 21.9 °F 74% 30.21 in 10.0 mi NNW 5.8 mph - N/A   Overcast
8:15 AM 29.3 °F 23.2 °F 22.1 °F 75% 30.22 in 10.0 mi North 5.8 mph - N/A   Overcast
8:35 AM 29.7 °F 22.8 °F 22.1 °F 73% 30.23 in 10.0 mi NNW 6.9 mph - N/A   Overcast
8:55 AM 30.0 °F 22.4 °F 22.5 °F 73% 30.23 in 10.0 mi North 8.1 mph - N/A   Overcast
9:15 AM 31.1 °F 23.7 °F 23.0 °F 72% 30.24 in 10.0 mi North 8.1 mph - N/A   Overcast
9:35 AM 31.8 °F 24.6 °F 23.7 °F 72% 30.24 in 10.0 mi North 8.1 mph - N/A   Overcast
9:55 AM 32.4 °F 22.5 °F 24.8 °F 74% 30.25 in 10.0 mi North 13.8 mph 17.3 mph N/A   Overcast
10:15 AM 33.3 °F 23.2 °F 25.2 °F 72% 30.25 in 10.0 mi North 15.0 mph - N/A   Scattered Clouds
10:35 AM 34.9 °F 25.3 °F 25.2 °F 68% 30.25 in 10.0 mi North 15.0 mph 20.7 mph N/A   Scattered Clouds
10:55 AM 35.8 °F 26.5 °F 24.4 °F 63% 30.25 in 10.0 mi North 15.0 mph - N/A   Scattered Clouds
11:15 AM 36.5 °F 26.7 °F 23.7 °F 60% 30.25 in 10.0 mi NNE 17.3 mph - N/A   Scattered Clouds
11:35 AM 38.1 °F 29.5 °F 24.1 °F 57% 30.26 in 10.0 mi North 15.0 mph - N/A   Scattered Clouds
11:55 AM 38.7 °F 30.5 °F 23.5 °F 55% 30.26 in 10.0 mi North 13.8 mph 18.4 mph N/A   Mostly Cloudy
12:15 PM 38.1 °F 28.4 °F 22.3 °F 53% 30.27 in 10.0 mi North 18.4 mph 24.2 mph N/A   Overcast
12:35 PM 38.5 °F 30.7 °F 23.2 °F 54% 30.27 in 10.0 mi North 12.7 mph 23.0 mph N/A   Overcast
1:15 PM 41.0 °F 31.9 °F 20.5 °F 44% 30.26 in 10.0 mi NNW 19.6 mph 26.5 mph N/A   Mostly Cloudy
1:35 PM 41.4 °F 33.0 °F 20.7 °F 44% 30.26 in 10.0 mi NNW 17.3 mph 26.5 mph N/A   Scattered Clouds
1:55 PM 41.9 °F 33.7 °F 18.7 °F 39% 30.25 in 10.0 mi North 17.3 mph 25.3 mph N/A   Scattered Clouds
2:15 PM 42.8 °F 34.5 °F 18.5 °F 38% 30.25 in 10.0 mi NNW 18.4 mph 28.8 mph N/A   Scattered Clouds
2:35 PM 43.3 °F 35.5 °F 18.7 °F 37% 30.24 in 10.0 mi North 17.3 mph 25.3 mph N/A   Scattered Clouds
2:55 PM 42.4 °F 33.3 °F 18.0 °F 37% 30.24 in 10.0 mi North 21.9 mph 28.8 mph N/A   Scattered Clouds
3:15 PM 43.2 °F 34.7 °F 18.0 °F 36% 30.23 in 10.0 mi NNW 19.6 mph 27.6 mph N/A   Scattered Clouds
3:35 PM 44.8 °F 37.7 °F 18.3 °F 35% 30.23 in 10.0 mi NNW 16.1 mph 24.2 mph N/A   Mostly Cloudy
3:55 PM 42.6 °F 34.6 °F 17.1 °F 36% 30.23 in 10.0 mi NNW 17.3 mph 24.2 mph N/A   Scattered Clouds
4:15 PM 43.0 °F 35.1 °F 17.4 °F 36% 30.22 in 10.0 mi North 17.3 mph 25.3 mph N/A   Scattered Clouds
4:35 PM 43.2 °F 36.6 °F 17.8 °F 36% 30.22 in 10.0 mi North 12.7 mph 26.5 mph N/A   Scattered Clouds
4:55 PM 42.8 °F 35.8 °F 16.3 °F 34% 30.22 in 10.0 mi North 13.8 mph 21.9 mph N/A   Scattered Clouds
5:15 PM 42.3 °F 34.8 °F 16.5 °F 35% 30.22 in 10.0 mi North 15.0 mph 21.9 mph N/A   Clear
5:35 PM 43.3 °F 35.8 °F 16.9 °F 35% 30.22 in 10.0 mi North 16.1 mph 19.6 mph N/A   Clear
5:55 PM 42.3 °F 33.8 °F 16.0 °F 35% 30.22 in 10.0 mi North 18.4 mph 23.0 mph N/A   Clear
6:15 PM 42.4 °F 35.3 °F 16.0 °F 34% 30.22 in 10.0 mi North 13.8 mph 19.6 mph N/A   Scattered Clouds
6:35 PM 41.4 °F 33.3 °F 15.3 °F 35% 30.23 in 10.0 mi North 16.1 mph 19.6 mph N/A   Scattered Clouds
6:55 PM 41.0 °F 34.3 °F 15.3 °F 35% 30.23 in 10.0 mi North 11.5 mph - N/A   Scattered Clouds
7:15 PM 39.6 °F 32.1 °F 14.9 °F 37% 30.22 in 10.0 mi North 12.7 mph - N/A   Scattered Clouds
7:35 PM 37.6 °F 31.0 °F 15.1 °F 40% 30.23 in 10.0 mi North 9.2 mph - N/A   Clear
7:55 PM 33.6 °F 26.8 °F 14.9 °F 46% 30.22 in 10.0 mi North 8.1 mph - N/A   Clear
8:15 PM 30.7 °F 22.6 °F 14.7 °F 52% 30.22 in 10.0 mi North 9.2 mph - N/A   Clear
8:35 PM 29.7 °F 22.8 °F 14.5 °F 53% 30.22 in 10.0 mi North 6.9 mph - N/A   Clear
8:55 PM 29.3 °F 22.3 °F 15.4 °F 56% 30.23 in 10.0 mi North 6.9 mph - N/A   Clear
9:15 PM 31.3 °F 25.6 °F 15.6 °F 52% 30.24 in 10.0 mi North 5.8 mph - N/A   Clear
9:35 PM 29.8 °F 24.9 °F 15.3 °F 55% 30.25 in 10.0 mi North 4.6 mph - N/A   Clear
9:55 PM 28.4 °F 23.3 °F 15.4 °F 58% 30.25 in 10.0 mi North 4.6 mph - N/A   Clear
10:15 PM 28.0 °F 24.2 °F 16.0 °F 61% 30.26 in 10.0 mi NNW 3.5 mph - N/A   Mostly Cloudy
10:35 PM 27.0 °F 23.0 °F 16.2 °F 64% 30.26 in 10.0 mi WNW 3.5 mph - N/A   Overcast
10:55 PM 27.1 °F 23.2 °F 16.5 °F 64% 30.26 in 10.0 mi NW 3.5 mph - N/A   Scattered Clouds
11:15 PM 27.7 °F 22.4 °F 16.9 °F 64% 30.26 in 10.0 mi NW 4.6 mph - N/A   Mostly Cloudy
11:35 PM 27.1 °F 19.7 °F 17.2 °F 66% 30.27 in 10.0 mi North 6.9 mph - N/A   Overcast
11:55 PM 29.7 °F 22.0 °F 17.6 °F 61% 30.27 in 10.0 mi North 8.1 mph - N/A   Scattered Clouds